1505084401.18,49028,14.25,73594.8,4.43,2.95,2.59,0,*79
1505084402.41,49029,14.25,73592.3,4.43,2.91,2.81,0,*79
1505084403.66,49030,14.25,73584.0,4.43,3.03,3.07,0,*74
1505084404.89,49031,14.25,73592.0,4.43,3.25,3.37,0,*72
1505084406.14,49032,14.25,73592.5,4.43,3.37,3.49,0,*7B
1505084407.39,49033,14.25,73588.0,4.43,3.37,3.41,0,*72
1505084408.62,49034,14.25,73592.0,4.43,3.19,3.25,0,*7B
1505084409.8,49035,14.25,73602.8,4.45,3.25,3.29,0,*7F
1505084411.02,49036,14.25,73586.0,4.45,3.37,3.49,0,*79
1505084412.25,49037,14.25,73584.8,4.45,3.37,3.37,0,*71
1505084413.49,49038,14.25,73590.8,4.45,3.41,3.41,0,*7E
1505084414.69,49039,14.25,73588.8,4.43,3.29,3.29,0,*79
1505084415.95,49040,14.25,73580.3,4.43,3.07,3.07,0,*77
1505084417.18,49041,14.25,73594.8,4.45,3.15,3.07,0,*73
1505084418.41,49042,14.25,73592.8,4.43,3.03,2.95,0,*7B
1505084419.61,49043,14.25,73594.3,4.45,2.95,2.89,0,*7F
1505084420.87,49044,14.25,73586.5,4.43,3.03,3.15,0,*74
1505084422.07,49045,14.25,73596.8,4.43,3.25,3.29,0,*7E
1505084423.27,49046,14.25,73602.3,4.43,3.25,3.29,0,*7D
1505084424.53,49047,14.25,73600.5,4.43,3.07,3.07,0,*70
1505084425.73,49048,14.25,73600.5,4.43,2.91,2.91,0,*7F
1505084426.96,49049,14.25,73602.3,4.43,2.95,3.03,0,*70
1505084428.21,49050,14.25,73600.5,4.43,3.15,3.19,0,*7A
1505084429.45,49051,14.25,73606.0,4.43,3.19,3.19,0,*77
1505084430.65,49052,14.25,73608.0,4.45,2.95,2.89,0,*7F
1505084431.83,49053,14.25,73584.3,4.45,2.95,2.91,0,*77
1505084433.04,49054,14.25,73582.8,4.45,2.91,2.89,0,*7D
1505084434.28,49055,14.25,73596.5,4.43,2.77,2.69,0,*7C
1505084435.54,49056,14.25,73594.0,4.43,2.81,2.77,0,*79
1505084436.76,49057,14.25,73588.5,4.43,2.77,2.65,0,*72
1505084438.01,49058,14.25,73584.5,4.43,2.69,2.47,0,*72
1505084439.25,49059,14.25,73584.8,4.43,2.89,2.47,0,*7D
1505084440.48,49060,14.25,73590.3,4.43,2.81,2.35,0,*7A
1505084441.7,49061,14.25,73592.8,4.41,2.55,2.05,0,*73
1505084442.88,49062,14.25,73596.3,4.41,2.31,1.83,0,*7F
1505084444.12,49063,14.25,73604.8,4.43,2.55,2.21,0,*75
1505084445.37,49064,14.25,73600.3,4.43,2.47,2.21,0,*71
1505084446.59,49065,14.25,73600.5,4.43,2.59,2.31,0,*7E
1505084447.85,49066,14.25,73602.8,4.43,2.81,2.59,0,*76
1505084449.08,49067,14.25,73604.8,4.43,3.03,2.65,0,*73
1505084450.31,49068,14.25,73604.0,4.45,3.03,2.59,0,*75
1505084451.51,49069,14.25,73606.3,4.41,2.99,2.73,0,*7A
1505084452.77,49070,14.25,73602.0,4.43,3.03,2.89,0,*77
1505084453.99,49071,14.19,73598.3,4.43,3.25,3.03,0,*71
1505084455.22,49072,14.25,73600.5,4.43,3.25,3.15,0,*75
1505084456.43,49073,14.25,73600.3,4.43,3.29,3.29,0,*77
1505084457.63,49074,14.25,73602.0,4.43,3.29,3.29,0,*70
1505084458.85,49075,14.25,73600.5,4.43,3.19,3.25,0,*7E
1505084460.1,49076,14.25,73604.8,4.43,3.15,3.19,0,*7E
1505084461.36,49077,14.25,73612.5,4.43,3.15,3.15,0,*73
1505084462.62,49078,14.25,73610.8,4.43,3.07,3.15,0,*7F
1505084463.85,49079,14.25,73614.5,4.43,3.03,2.95,0,*73
1505084465.08,49080,14.25,73608.0,4.43,2.91,2.89,0,*72
1505084466.3,49081,14.25,73612.5,4.41,2.85,2.73,0,*71
1505084467.56,49082,14.25,73614.0,4.43,2.81,2.81,0,*79
1505084468.79,49083,14.25,73608.5,4.43,2.91,2.81,0,*79
1505084470.0,49084,14.25,73610.8,4.41,2.91,2.77,0,*75
1505084471.2,49085,14.25,73614.5,4.41,2.91,2.77,0,*74
1505084472.43,49086,14.25,73602.3,4.43,3.25,3.03,0,*79
1505084473.65,49087,14.25,73600.0,4.43,3.25,3.07,0,*7C
1505084474.91,49088,14.25,73584.3,4.43,3.15,3.07,0,*70
1505084476.14,49089,14.25,73584.3,4.43,3.25,3.15,0,*71
1505084477.4,49090,14.25,73592.8,4.43,3.15,3.15,0,*7A
1505084478.6,49091,14.25,73598.3,4.43,3.29,3.25,0,*77
1505084479.83,49092,14.25,73600.5,4.41,3.45,3.37,0,*7F
1505084481.06,49093,14.25,73596.5,4.41,3.45,3.45,0,*7B
1505084482.28,49094,14.25,73602.8,4.43,3.37,3.25,0,*7D
1505084483.48,49095,14.25,73602.3,4.41,3.55,3.49,0,*70
1505084484.68,49096,14.25,73600.8,4.43,3.63,3.59,0,*75
1505084485.87,49097,14.25,73602.0,4.43,3.63,3.63,0,*7D
1505084487.12,49098,14.25,73598.3,4.43,3.71,3.71,0,*72
1505084488.35,49099,14.25,73598.5,4.41,3.67,3.67,0,*71
1505084489.61,49100,14.25,73598.8,4.43,3.71,3.71,0,*72
1505084490.84,49101,14.25,73604.0,4.41,3.67,3.67,0,*71
1505084492.06,49102,14.25,73604.3,4.43,3.63,3.71,0,*73
1505084493.3,49103,14.25,73596.8,4.43,3.53,3.53,0,*71
1505084494.53,49104,14.25,73600.0,4.41,3.45,3.45,0,*74
1505084495.73,49105,14.25,73598.5,4.41,3.55,3.67,0,*74
1505084496.95,49106,14.25,73600.0,4.43,3.53,3.63,0,*77
1505084498.14,49107,14.25,73602.0,4.43,3.63,3.59,0,*7C
1505084499.34,49108,14.25,73602.8,4.43,3.63,3.63,0,*7A
1505084500.59,49109,14.25,73602.5,4.43,3.71,3.71,0,*7B
1505084501.84,49110,14.25,73602.0,4.43,3.71,3.71,0,*73
1505084503.04,49111,14.25,73598.8,4.43,3.63,3.63,0,*72
1505084504.24,49112,14.25,73596.5,4.45,3.63,3.71,0,*74
1505084505.46,49113,14.25,73602.0,4.47,3.55,3.67,0,*75
1505084506.69,49114,14.25,73602.8,4.45,3.71,3.71,0,*71
1505084507.92,49115,14.25,73596.8,4.45,3.71,3.71,0,*70
1505084509.17,49116,14.25,73594.3,4.43,3.71,3.71,0,*75
1505084510.43,49117,14.25,73606.5,4.43,3.71,3.71,0,*74
1505084511.65,49118,14.25,73608.3,4.43,3.63,3.71,0,*78
1505084512.85,49119,14.25,73606.8,4.45,3.63,3.71,0,*7F
1505084514.02,49120,14.25,73604.0,4.45,3.63,3.63,0,*76
1505084515.22,49121,14.25,73598.5,4.45,3.53,3.63,0,*74
1505084516.39,49122,14.25,73598.0,4.45,3.59,3.63,0,*7D
1505084517.6,49123,14.25,73594.5,4.45,3.63,3.71,0,*76
1505084518.83,49124,14.25,73598.0,4.45,3.71,3.71,0,*72
1505084520.09,49125,14.25,73598.8,4.47,3.75,3.75,0,*71
1505084521.32,49126,14.25,73600.5,4.45,3.71,3.71,0,*70
1505084522.51,49127,14.25,73600.0,4.45,3.53,3.59,0,*7B
1505084523.71,49128,14.25,73598.8,4.47,3.63,3.63,0,*7C
1505084524.94,49129,14.25,73600.0,4.47,3.67,3.63,0,*79
1505084526.2,49130,14.25,73610.5,4.47,3.67,3.67,0,*75
1505084527.39,49131,14.25,73604.8,4.47,3.55,3.63,0,*71
1505084528.61,49132,14.25,73600.5,4.45,3.53,3.53,0,*75
1505084529.81,49133,14.25,73606.0,4.45,3.59,3.53,0,*7E
1505084531.01,49134,14.25,73600.0,4.47,3.63,3.55,0,*74
1505084532.18,49135,14.25,73604.0,4.45,3.59,3.59,0,*72
1505084533.36,49136,14.25,73604.0,4.49,3.63,3.55,0,*78
1505084534.55,49137,14.25,73600.3,4.45,3.53,3.59,0,*7A
1505084535.78,49138,14.25,73604.5,4.47,3.63,3.67,0,*79
1505084537.0,49139,14.25,73600.5,4.45,3.53,3.53,0,*7E
1505084538.19,49140,14.25,73600.3,4.45,3.59,3.53,0,*7A
1505084539.39,49141,14.25,73604.0,4.45,3.55,3.67,0,*70
1505084540.59,49142,14.25,73600.5,4.47,3.63,3.63,0,*70
1505084541.78,49143,14.25,73608.8,4.45,3.59,3.53,0,*79
1505084542.98,49144,14.25,73612.0,4.47,3.55,3.55,0,*76
1505084544.21,49145,14.25,73614.5,4.45,3.53,3.49,0,*7E
1505084545.46,49146,14.25,73614.3,4.47,3.45,3.45,0,*74
1505084546.71,49147,14.25,73612.5,4.47,3.33,3.45,0,*74
1505084547.97,49148,14.25,73610.5,4.47,3.41,3.45,0,*7E
1505084549.23,49149,14.25,73610.5,4.47,3.23,3.33,0,*7A
1505084550.47,49150,14.25,73610.0,4.45,3.15,3.07,0,*72
1505084551.72,49151,14.25,73608.8,4.47,3.19,3.11,0,*7A
1505084552.97,49152,14.25,73610.8,4.47,3.11,3.07,0,*76
1505084554.17,49153,14.25,73602.5,4.47,2.99,2.91,0,*78
1505084555.43,49154,14.25,73586.3,4.47,3.11,3.11,0,*77
1505084556.61,49155,14.25,73576.3,4.45,3.29,3.29,0,*74
1505084557.84,49156,14.25,73584.8,4.47,3.33,3.29,0,*7E
1505084559.07,49157,14.25,73582.5,4.45,3.41,3.49,0,*7E
1505084560.32,49158,14.25,73590.0,4.47,3.45,3.45,0,*7B
1505084561.58,49159,14.25,73588.3,4.47,3.45,3.45,0,*7A
1505084562.82,49160,14.25,73588.5,4.45,3.41,3.41,0,*72
1505084564.05,49161,14.25,73598.8,4.45,3.41,3.37,0,*72
1505084565.3,49162,14.25,73600.8,4.47,3.23,3.23,0,*72
1505084566.53,49163,14.25,73596.3,4.45,3.03,3.03,0,*71
1505084567.79,49164,14.25,73596.8,4.47,2.73,2.81,0,*79
1505084569.02,49165,14.25,73596.3,4.45,2.17,2.47,0,*72
1505084570.22,49166,14.25,73600.8,4.45,1.75,2.21,0,*76
1505084571.44,49167,14.25,73596.8,4.45,1.55,1.71,0,*73
1505084572.67,49168,14.25,73600.5,4.45,1.25,1.71,0,*7B
1505084573.85,49169,14.25,73598.5,4.47,0.43,1.05,0,*4A
1505084575.07,49170,14.25,73596.5,4.45,-0.23,0.79,0,*51
1505084576.3,49171,14.25,73594.0,4.45,0.79,1.85,0,*40
1505084577.51,49172,14.25,73600.3,4.45,1.13,1.83,0,*78
1505084578.72,49173,14.25,73600.5,4.45,1.75,2.17,0,*77
1505084579.94,49174,14.25,73600.0,4.45,2.21,2.47,0,*77
1505084581.17,49175,14.25,73598.3,4.43,2.65,2.89,0,*72
1505084582.42,49176,14.25,73594.8,4.43,2.89,3.03,0,*70
1505084583.65,49177,14.25,73592.8,4.45,3.15,3.19,0,*78
1505084584.86,49178,14.25,73594.5,4.43,3.25,3.25,0,*7D
1505084586.09,49179,14.25,73590.5,4.41,3.23,3.33,0,*7F
1505084587.35,49180,14.25,73586.0,4.43,3.41,3.41,0,*7A
1505084588.6,49181,14.25,73586.8,4.43,3.41,3.49,0,*73
1505084589.86,49182,14.25,73590.5,4.43,3.41,3.49,0,*70
1505084591.11,49183,14.25,73588.3,4.43,3.37,3.41,0,*78
1505084592.35,49184,14.25,73592.0,4.45,3.37,3.41,0,*79
1505084593.58,49185,14.25,73588.0,4.45,3.41,3.41,0,*79
1505084594.8,49186,14.25,73592.5,4.43,3.53,3.59,0,*76
1505084596.0,49187,14.25,73598.3,4.43,3.59,3.59,0,*7D
1505084597.17,49188,14.25,73600.8,4.45,3.63,3.63,0,*74
1505084598.34,49189,14.25,73602.8,4.45,3.63,3.63,0,*75
1505084599.54,49190,14.25,73606.5,4.45,3.71,3.63,0,*7E
1505084600.74,49191,14.25,73614.8,4.45,3.63,3.71,0,*7F
1505084601.92,49192,14.25,73600.3,4.45,3.59,3.59,0,*7F
1505084603.09,49193,14.25,73606.0,4.45,3.59,3.59,0,*7E
1505084604.3,49194,14.25,73600.3,4.45,3.63,3.71,0,*7A
1505084605.47,49195,14.25,73598.3,4.45,3.63,3.63,0,*78
1505084606.69,49196,14.25,73606.8,4.47,3.63,3.67,0,*7D
1505084607.87,49197,14.25,73604.0,4.45,3.59,3.63,0,*73
1505084609.06,49198,14.25,73606.3,4.45,3.53,3.63,0,*76
1505084610.29,49199,14.25,73600.0,4.45,3.53,3.71,0,*74
1505084611.51,49200,14.25,73602.0,4.47,3.55,3.67,0,*74
1505084612.73,49201,14.25,73596.5,4.45,3.53,3.71,0,*76
1505084613.9,49202,14.25,73598.5,4.45,3.63,3.63,0,*75
1505084615.11,49203,14.25,73592.3,4.45,3.63,3.71,0,*77
1505084616.37,49204,14.25,73596.0,4.47,3.67,3.75,0,*72
1505084617.62,49205,14.25,73598.5,4.47,3.67,3.67,0,*70
1505084618.88,49206,14.25,73598.8,4.47,3.67,3.75,0,*70
1505084620.11,49207,14.25,73596.0,4.47,3.63,3.67,0,*76
1505084621.33,49208,14.25,73592.0,4.47,3.63,3.67,0,*79
1505084622.55,49209,14.25,73592.8,4.47,3.55,3.67,0,*7D
1505084623.81,49210,14.25,73590.3,4.47,3.67,3.75,0,*77
1505084625.07,49211,14.25,73594.0,4.47,3.67,3.75,0,*76
1505084626.33,49212,14.25,73594.3,4.47,3.75,3.75,0,*76
1505084627.59,49213,14.25,73594.3,4.47,3.75,3.67,0,*74
1505084628.85,49214,14.25,73594.8,4.47,3.67,3.75,0,*73
1505084630.05,49215,14.25,73602.5,4.47,3.55,3.55,0,*71
1505084631.25,49216,14.25,73602.3,4.47,3.63,3.63,0,*72
1505084632.47,49217,14.25,73606.8,4.47,3.63,3.67,0,*77
1505084633.67,49218,14.25,73606.5,4.47,3.55,3.55,0,*7C
1505084634.9,49219,14.25,73606.0,4.49,3.33,3.45,0,*72
1505084636.13,49220,14.25,73606.5,4.49,3.45,3.45,0,*79
1505084637.36,49221,14.25,73608.0,4.49,3.41,3.45,0,*7C
1505084638.59,49222,14.25,73610.5,4.49,3.41,3.53,0,*78
1505084639.79,49223,14.19,73610.0,4.49,3.45,3.63,0,*7E
1505084641.02,49224,14.25,73608.5,4.45,3.33,3.45,0,*70
1505084642.25,49225,14.25,73616.5,4.49,3.19,3.33,0,*74
1505084643.46,49226,14.25,73620.0,4.49,3.11,3.29,0,*74
1505084644.66,49227,14.19,73622.8,4.49,2.95,3.11,0,*73
1505084645.89,49228,14.25,73620.5,4.49,2.47,2.69,0,*7D
1505084647.12,49229,14.25,73628.5,4.47,1.63,2.27,0,*7D
1505084648.35,49230,14.25,73616.3,4.47,1.05,1.51,0,*77
1505084649.61,49231,14.25,73628.8,4.47,1.37,1.67,0,*72
1505084650.83,49232,14.25,73622.3,4.47,2.25,2.27,0,*76
1505084652.06,49233,14.25,73622.0,4.47,2.99,3.07,0,*73
1505084653.29,49234,14.25,73624.0,4.47,3.29,3.33,0,*79
1505084654.55,49235,14.25,73630.0,4.47,3.41,3.41,0,*73
1505084655.81,49236,14.25,73622.5,4.47,3.41,3.41,0,*70
1505084657.0,49237,14.25,73626.0,4.45,3.29,3.29,0,*73
1505084658.23,49238,14.25,73618.5,4.47,3.11,2.99,0,*7F
1505084659.41,49239,14.25,73622.8,4.45,3.29,3.29,0,*7D
1505084660.63,49240,14.25,73626.0,4.45,3.53,3.49,0,*78
1505084661.85,49241,14.25,73626.8,4.47,3.55,3.53,0,*76
1505084663.08,49242,14.25,73624.3,4.45,3.49,3.49,0,*71
1505084664.33,49243,14.25,73622.0,4.47,3.45,3.45,0,*72
1505084665.59,49244,14.25,73616.3,4.47,3.45,3.45,0,*75
1505084666.8,49245,14.25,73612.0,4.45,3.15,3.25,0,*75
1505084668.06,49246,14.25,73614.8,4.47,3.41,3.45,0,*73
1505084669.32,49247,14.25,73612.0,4.47,3.41,3.41,0,*76
1505084670.56,49248,14.25,73612.3,4.45,3.41,3.41,0,*7B
1505084671.73,49249,14.25,73604.5,4.45,3.59,3.59,0,*7A
1505084672.93,49250,14.25,73602.8,4.47,3.55,3.63,0,*75
1505084674.15,49251,14.25,73606.0,4.45,3.53,3.53,0,*73
1505084675.32,49252,14.25,73610.0,4.45,3.63,3.63,0,*70
1505084676.49,49253,14.25,73600.3,4.49,3.63,3.63,0,*7D
1505084677.69,49254,14.25,73586.3,4.47,3.55,3.55,0,*74
1505084678.89,49255,14.25,73582.0,4.45,3.53,3.59,0,*7D
1505084680.14,49256,14.19,73580.8,4.47,3.67,3.67,0,*76
1505084681.37,49257,14.25,73580.5,4.47,3.63,3.67,0,*73
1505084682.6,49258,14.19,73582.8,4.49,3.67,3.67,0,*76
1505084683.84,49259,14.25,73584.8,4.49,3.67,3.75,0,*74
1505084685.04,49260,14.25,73582.8,4.49,3.63,3.67,0,*79
1505084686.29,49261,14.25,73586.3,4.47,3.67,3.67,0,*72
1505084687.56,49262,14.25,73586.0,4.47,3.67,3.75,0,*72
1505084688.81,49263,14.25,73580.5,4.47,3.75,3.67,0,*73
1505084690.04,49264,14.25,73568.3,4.47,3.67,3.63,0,*73
1505084691.29,49265,14.25,73564.8,4.47,3.53,3.53,0,*76
1505084692.54,49266,14.25,73556.3,4.47,3.45,3.45,0,*75
1505084693.81,49267,14.25,73558.5,4.47,3.41,3.41,0,*74
1505084695.06,49268,14.25,73546.3,4.47,3.53,3.45,0,*7C
1505084696.32,49269,14.25,73552.5,4.47,3.45,3.45,0,*7A
1505084697.57,49270,14.25,73552.5,4.47,3.41,3.45,0,*76
1505084698.77,49271,14.25,73554.5,4.47,3.55,3.55,0,*73
1505084700.0,49272,14.25,73554.5,4.47,3.67,3.63,0,*74
1505084701.26,49273,14.25,73572.0,4.47,3.75,3.67,0,*72
1505084702.45,49274,14.25,73580.3,4.47,3.55,3.63,0,*73
1505084703.65,49275,14.25,73588.3,4.47,3.55,3.63,0,*72
1505084704.84,49276,14.25,73586.5,4.47,3.55,3.55,0,*74
1505084706.07,49277,14.25,73586.0,4.47,3.63,3.67,0,*71
1505084707.28,49278,14.19,73590.8,4.49,3.67,3.63,0,*70
1505084708.47,49279,14.25,73600.8,4.47,3.55,3.63,0,*7E
1505084709.7,49280,14.25,73602.5,4.47,3.67,3.63,0,*79
1505084710.93,49281,14.25,73604.3,4.47,3.67,3.63,0,*78
1505084712.19,49282,14.25,73596.8,4.47,3.67,3.67,0,*7F
1505084713.42,49283,14.25,73600.0,4.47,3.67,3.59,0,*73
1505084714.67,49284,14.19,73578.3,4.47,3.33,3.33,0,*79
1505084715.88,49285,14.25,73586.8,4.47,3.29,3.29,0,*78
1505084717.08,49286,14.25,73594.5,4.49,3.55,3.45,0,*74
1505084718.3,49287,14.25,73594.8,4.45,3.53,3.53,0,*78
1505084719.53,49288,14.25,73592.5,4.45,3.41,3.49,0,*7F
1505084720.79,49289,14.25,73584.3,4.47,3.41,3.53,0,*77
1505084722.01,49290,14.25,73580.8,4.45,3.37,3.37,0,*7E
1505084723.26,49291,14.25,73580.5,4.47,3.53,3.53,0,*7D
1505084724.45,49292,14.25,73578.0,4.47,3.55,3.55,0,*7E
1505084725.65,49293,14.25,73574.8,4.47,3.63,3.63,0,*7F
1505084726.91,49294,14.25,73582.0,4.47,3.67,3.75,0,*7B
1505084728.17,49295,14.25,73588.8,4.47,3.67,3.75,0,*7A
1505084729.43,49296,14.25,73592.0,4.47,3.75,3.75,0,*7A
1505084730.69,49297,14.19,73584.8,4.47,3.67,3.67,0,*7B
1505084731.91,49298,14.25,73580.8,4.47,3.63,3.67,0,*70
1505084733.11,49299,14.25,73584.5,4.49,3.55,3.67,0,*7A
1505084734.33,49300,14.25,73580.3,4.45,3.53,3.53,0,*76
1505084735.56,49301,14.25,73588.3,4.47,3.63,3.75,0,*72
1505084736.82,49302,14.25,73584.3,4.47,3.67,3.75,0,*75
1505084738.04,49303,14.25,73580.5,4.47,3.63,3.67,0,*73
1505084739.24,49304,14.25,73586.5,4.51,3.55,3.59,0,*7B
1505084740.44,49305,14.25,73584.5,4.49,3.67,3.63,0,*7B
1505084741.62,49306,14.25,73586.0,4.49,3.55,3.55,0,*7C
1505084742.79,49307,14.25,73590.3,4.49,3.55,3.55,0,*7D
1505084744.02,49308,14.25,73576.3,4.49,3.45,3.41,0,*76
1505084745.26,49309,14.19,73572.0,4.49,3.45,3.41,0,*77
1505084746.5,49310,14.25,73582.3,4.51,3.49,3.37,0,*7B
1505084747.71,49311,14.25,73578.5,4.49,3.55,3.41,0,*7F
1505084748.94,49312,14.25,73590.8,4.49,3.45,3.33,0,*78
1505084750.19,49313,14.25,73588.0,4.51,3.49,3.37,0,*78
1505084751.39,49314,14.19,73584.0,4.49,3.29,3.11,0,*74
1505084752.6,49315,14.25,73592.0,4.49,3.29,3.07,0,*72
1505084753.83,49316,14.25,73598.0,4.49,3.19,3.07,0,*72
1505084755.03,49317,14.25,73594.8,4.49,3.29,3.07,0,*70
1505084756.23,49318,14.25,73598.8,4.49,3.29,3.19,0,*70
1505084757.43,49319,14.25,73608.0,4.49,3.29,3.19,0,*71
1505084758.64,49320,14.19,73610.0,4.49,3.41,3.29,0,*76
1505084759.85,49321,14.25,73610.0,4.49,3.41,3.29,0,*77
1505084761.06,49322,14.25,73614.0,4.49,3.41,3.29,0,*74
1505084762.27,49323,14.19,73612.8,4.49,3.45,3.29,0,*71
1505084763.47,49324,14.25,73612.0,4.49,3.45,3.29,0,*76
1505084764.71,49325,14.25,73612.0,4.49,3.41,3.33,0,*78
1505084765.93,49326,14.25,73610.5,4.51,3.45,3.25,0,*71
1505084767.14,49327,14.25,73608.5,4.49,3.45,3.29,0,*75
1505084768.36,49328,14.19,73604.3,4.49,3.33,3.19,0,*78
1505084769.56,49329,14.25,73594.8,4.49,3.19,2.91,0,*70
1505084770.79,49330,14.25,73574.5,4.49,3.19,3.07,0,*76
1505084772.04,49331,14.25,73582.0,4.47,3.23,3.19,0,*7F
1505084773.29,49332,14.25,73560.0,4.47,3.11,3.07,0,*72
1505084774.55,49333,14.25,73568.5,4.47,3.11,3.19,0,*7C
1505084775.8,49334,14.25,73582.8,4.47,3.33,3.33,0,*73
1505084777.05,49335,14.25,73578.0,4.47,3.33,3.33,0,*72
1505084778.28,49336,14.25,73556.5,4.49,3.23,3.23,0,*7F
1505084779.51,49337,14.19,73560.0,4.47,3.33,3.29,0,*7B
1505084780.77,49338,14.19,73560.5,4.47,3.45,3.41,0,*7B
1505084781.97,49339,14.25,73570.3,4.47,3.63,3.63,0,*7E
1505084783.22,49340,14.25,73574.3,4.47,3.53,3.45,0,*77
1505084784.44,49341,14.19,73570.3,4.45,3.37,3.37,0,*73
1505084785.71,49342,14.25,73572.3,4.47,3.41,3.41,0,*72
1505084786.96,49343,14.25,73582.0,4.47,3.53,3.45,0,*74
1505084788.21,49344,14.25,73572.5,4.47,3.33,3.33,0,*74
1505084789.44,49345,14.19,73586.0,4.47,3.33,3.29,0,*7E
1505084790.66,49346,14.19,73588.5,4.47,3.19,2.95,0,*73
1505084791.91,49347,14.25,73584.5,4.47,2.85,2.39,0,*70
1505084793.16,49348,14.25,73594.5,4.47,2.09,1.51,0,*76
1505084794.41,49349,14.19,73592.3,4.47,1.63,0.79,0,*43
1505084795.64,49350,14.25,73592.3,4.47,0.55,-0.45,0,*5D
1505084796.86,49351,14.25,73596.8,4.47,0.41,-0.57,0,*5A
1505084798.1,49352,14.19,73594.8,4.47,0.41,-1.09,0,*63
1505084799.32,49353,14.19,73598.3,4.47,0.17,-1.29,0,*63
1505084800.54,49354,14.19,73602.5,4.47,0.33,-0.81,0,*51
1505084801.77,49355,14.19,73606.5,4.47,0.63,-0.37,0,*58
1505084802.99,49356,14.19,73604.0,4.47,0.79,-0.53,0,*52
1505084804.22,49357,14.25,73610.5,4.47,0.79,-0.69,0,*5A
1505084805.47,49358,14.19,73608.3,4.47,0.71,-0.23,0,*53
1505084806.69,49359,14.25,73604.5,4.47,1.01,0.51,0,*4C
1505084807.95,49360,14.19,73606.5,4.47,1.37,1.17,0,*70
1505084809.16,49361,14.19,73604.5,4.49,1.67,1.75,0,*7E
1505084810.39,49362,14.19,73608.8,4.49,1.97,2.09,0,*7A
1505084811.59,49363,14.19,73610.3,4.49,2.01,2.27,0,*7B
1505084812.82,49364,14.25,73606.0,4.49,2.01,2.39,0,*73
1505084814.06,49365,14.25,73608.0,4.49,2.09,2.51,0,*74
1505084815.29,49366,14.19,73604.0,4.51,2.05,2.65,0,*75
1505084816.49,49367,14.25,73608.8,4.49,2.27,2.81,0,*77
1505084817.75,49368,14.25,73610.5,4.51,2.43,2.89,0,*7B
1505084818.97,49369,14.19,73608.3,4.51,2.73,2.99,0,*78
1505084820.17,49370,14.19,73612.3,4.49,2.73,2.95,0,*75
1505084821.42,49371,14.25,73612.3,4.51,2.89,3.11,0,*75
1505084822.62,49372,14.25,73610.5,4.49,2.99,3.11,0,*7E
1505084823.82,49373,14.19,73604.5,4.49,3.19,3.29,0,*7D
1505084825.03,49374,14.25,73604.3,4.49,3.29,3.41,0,*77
1505084826.28,49375,14.25,73600.0,4.51,3.37,3.37,0,*71
1505084827.49,49376,14.19,73590.3,4.49,3.41,3.29,0,*75
1505084828.75,49377,14.19,73588.5,4.51,3.45,3.45,0,*73
1505084829.99,49378,14.25,73596.3,4.51,3.49,3.45,0,*70
1505084831.22,49379,14.19,73596.8,4.49,3.53,3.53,0,*74
1505084832.44,49380,14.19,73598.0,4.51,3.55,3.49,0,*76
1505084833.69,49381,14.19,73600.0,4.51,3.49,3.45,0,*76
1505084834.91,49382,14.25,73610.0,4.51,3.49,3.55,0,*74
1505084836.13,49383,14.25,73614.3,4.51,3.25,3.45,0,*7E
1505084837.35,49384,14.19,73616.0,4.51,2.95,3.23,0,*73
1505084838.61,49385,14.25,73618.3,4.51,2.77,3.03,0,*7C
1505084839.81,49386,14.19,73610.8,4.51,2.65,2.99,0,*7E
1505084841.04,49387,14.19,73612.8,4.53,2.51,2.73,0,*7E
1505084842.25,49388,14.19,73604.8,4.53,2.31,2.39,0,*79
1505084843.45,49389,14.25,73600.8,4.53,2.13,2.31,0,*70
1505084844.65,49390,14.25,73608.8,4.49,2.21,2.27,0,*75
1505084845.87,49391,14.25,73616.5,4.51,2.65,2.55,0,*78
1505084847.11,49392,14.19,73616.0,4.51,2.73,2.55,0,*7C
1505084848.34,49393,14.19,73620.3,4.51,2.85,2.65,0,*77
1505084849.56,49394,14.19,73612.5,4.51,2.95,2.73,0,*76
1505084850.79,49395,14.19,73616.3,4.51,3.11,2.99,0,*7E
1505084852.03,49396,14.19,73612.0,4.49,3.23,3.07,0,*73
1505084853.25,49397,14.19,73610.0,4.51,3.25,3.23,0,*7B
1505084854.51,49398,14.25,73622.8,4.51,3.15,3.15,0,*72
1505084855.74,49399,14.19,73616.3,4.51,3.03,2.99,0,*71
1505084856.99,49400,14.19,73606.5,4.51,2.51,2.39,0,*7A
1505084858.21,49401,14.19,73596.3,4.51,1.89,1.79,0,*7A
1505084859.46,49402,14.19,73594.0,4.51,1.71,1.29,0,*7B
1505084860.68,49403,14.19,73592.5,4.51,0.97,0.21,0,*7A
1505084861.87,49404,14.19,73594.3,4.49,0.67,-0.29,0,*5E
1505084863.11,49405,14.19,73612.3,4.51,1.09,-0.49,0,*69
1505084864.34,49406,14.19,73614.5,4.49,1.25,-0.89,0,*61
1505084865.52,49407,14.19,73618.5,4.49,1.75,-0.07,0,*53
1505084866.72,49408,14.19,73614.5,4.49,2.21,0.43,0,*43
1505084867.92,49409,14.19,73610.0,4.49,2.59,1.75,0,*79
1505084869.13,49410,14.19,73618.5,4.49,2.95,2.39,0,*7A
1505084870.36,49411,14.19,73616.3,4.51,3.11,2.65,0,*76
1505084871.6,49412,14.19,73616.3,4.49,3.07,2.59,0,*74
1505084872.82,49413,14.25,73616.0,4.49,3.19,2.73,0,*72
1505084874.03,49414,14.19,73614.3,4.49,3.07,2.95,0,*72
1505084875.26,49415,14.19,73614.0,4.49,3.19,3.07,0,*76
1505084876.48,49416,14.19,73602.5,4.49,3.19,3.07,0,*75
1505084877.72,49417,14.19,73606.5,4.49,3.11,3.07,0,*7C
1505084878.98,49418,14.19,73612.3,4.47,3.41,3.41,0,*7A
1505084880.23,49419,14.19,73614.3,4.47,3.53,3.53,0,*7B
1505084881.42,49420,14.19,73616.0,4.47,3.55,3.55,0,*71
1505084882.62,49421,14.19,73630.5,4.47,3.63,3.63,0,*70
1505084883.79,49422,14.19,73628.5,4.49,3.63,3.63,0,*7D
1505084884.97,49423,14.19,73626.3,4.49,3.55,3.63,0,*79
1505084886.2,49424,14.19,73624.8,4.49,3.45,3.45,0,*7B
1505084887.43,49425,14.19,73614.0,4.49,3.33,3.33,0,*7A
1505084888.66,49426,14.19,73612.0,4.49,3.33,3.41,0,*7C
1505084889.89,49427,14.25,73616.3,4.49,3.33,3.41,0,*7D
1505084891.13,49428,14.19,73616.0,4.49,3.23,3.33,0,*76
1505084892.36,49429,14.19,73606.3,4.49,3.23,3.23,0,*76
1505084893.59,49430,14.19,73610.0,4.49,3.07,3.07,0,*7E
1505084894.77,49431,14.19,73596.0,4.49,2.95,2.95,0,*7F
1505084895.97,49432,14.19,73606.8,4.47,2.95,2.91,0,*76
1505084897.18,49433,14.19,73596.3,4.47,2.91,2.95,0,*77
1505084898.43,49434,14.19,73606.3,4.47,3.07,3.07,0,*74
1505084899.61,49435,14.19,73606.5,4.49,2.91,2.99,0,*73
1505084900.87,49436,14.25,73606.8,4.47,2.59,2.85,0,*77
1505084902.1,49437,14.19,73614.8,4.47,2.09,2.61,0,*79
1505084903.34,49438,14.25,73598.0,4.45,1.37,2.25,0,*7A
1505084904.57,49439,14.19,73588.0,4.45,1.09,2.21,0,*72
1505084905.79,49440,14.19,73592.8,4.45,1.51,2.25,0,*75
1505084907.05,49441,14.19,73592.5,4.47,2.39,2.81,0,*75
1505084908.23,49442,14.19,73596.8,4.45,2.65,2.91,0,*7C
1505084909.43,49443,14.19,73602.3,4.45,2.99,3.07,0,*70
1505084910.63,49444,14.19,73592.3,4.45,3.19,3.29,0,*72
1505084911.88,49445,14.19,73588.0,4.47,3.23,3.23,0,*72
1505084913.08,49446,14.19,73596.3,4.45,3.19,3.25,0,*7C
1505084914.28,49447,14.25,73594.3,4.45,3.19,3.29,0,*71
1505084915.51,49448,14.19,73590.8,4.47,2.99,3.19,0,*76
1505084916.73,49449,14.19,73594.5,4.45,2.89,3.19,0,*74
1505084917.97,49450,14.19,73584.0,4.47,2.69,3.23,0,*79
1505084919.2,49451,14.19,73598.8,4.45,2.55,3.15,0,*70
1505084920.43,49452,14.19,73598.0,4.45,2.55,3.07,0,*70
1505084921.63,49453,14.19,73610.3,4.45,2.65,3.03,0,*76
1505084922.89,49454,14.25,73584.8,4.47,2.47,2.73,0,*75
1505084924.12,49455,14.19,73596.8,4.45,2.81,2.89,0,*79
1505084925.35,49456,14.19,73600.0,4.45,2.89,2.89,0,*72
1505084926.55,49457,14.19,73600.0,4.43,2.91,2.91,0,*75
1505084927.8,49458,14.25,73598.0,4.43,2.89,2.89,0,*7A
1505084929.03,49459,14.19,73598.5,4.41,2.89,2.77,0,*78
1505084930.23,49460,14.19,73606.3,4.41,2.77,2.65,0,*70
1505084931.45,49461,14.25,73602.8,4.41,2.89,2.77,0,*73
1505084932.68,49462,14.19,73586.3,4.41,2.85,2.73,0,*78
1505084933.91,49463,14.19,73590.5,4.39,3.07,2.95,0,*75